sat.trackr.live / text

‹ back to catalog

STARLINK-33656

NORAD 63389 · 2025-063AC

PAYLOAD ACTIVE UNKNOWN

§ Identity

Operator
Country
US
Launch date
2025-03-26
Launch site
AFWTR
Launch vehicle
Mass (kg)
RCS (m²)

Purposes: comms

External: N2YO · Heavens-Above · Gunter

§ Orbital elements

Epoch: 2026-05-25T04:12:50.501664Z

Period
94.01 min
Inclination
53.1587°
Eccentricity
0.0001040
Mean motion
15.31718807 rev/d
Perigee alt
470.0 km
Apogee alt
471.4 km
Semi-major
6,848.8 km
B*
4.9935e-4
RAAN
56.9165°
Arg perigee
85.7959°
Mean anomaly
274.3161°
Rev number
6,647

§ Raw data

STARLINK-336561 63389U 25063AC  26145.17558451  .00015171  00000+0  49935-3 0  99962 63389  53.1587  56.9165 0001040  85.7959 274.3161 15.31718807 66478

JSON: /api/v1/satellites/63389 · /tle

For live sub-satellite position, see the globe view (requires WebGL).

§ Visibility from observer

Set your observer location to see the next 7 days of passes ≥ 10°. The values pass through the URL so the page stays shareable.

No JS? Fill the form by hand. The geolocation button needs JavaScript.